Regional Weather Roundup
Issued by NWS

Home | Current Version | Previous Version | Text Only | Print | Product List | Glossary On
Versions: 1 2 3 4 5 6 7 8 9 10 11 12 13 14 15 16 17 18 19 20 21 22 23 24 25 26 27 28 29 30 31 32 33 34 35 36 37 38 39 40 41 42 43 44 45 46 47 48 49 50
000
ASUS45 KSLC 201910
RWRUT

UTAH REGIONAL WEATHER ROUNDUP
NATIONAL WEATHER SERVICE SALT LAKE CITY UT
100 PM MDT SAT SEP 20 2014

UTZ001>011-023>025-202000-

NORTHERN UTAH

CITY           SKY/WX    TMP DP  RH WIND       PRES   REMARKS
HILL AFB       SUNNY     77  48  35 N6        30.20F
LOGAN          SUNNY     72  48  42 N5        30.20F
OGDEN          SUNNY     78  47  33 MISG      30.18F
PROVO AIRPORT  SUNNY     73  54  49 VRB6      30.19F
SALT LAKE CITY SUNNY     78  47  33 NW7       30.16F
VERNAL         SUNNY     78  41  26 CALM      30.25F
WENDOVER       SUNNY     81  43  26 SE8       30.18F
HEBER CITY     SUNNY     75  41  29 CALM      30.24F
WEST JORDAN    SUNNY     79  46  31 N3        30.19F

$$

UTZ012>022-026-027-202000-

SOUTHERN UTAH

CITY           SKY/WX    TMP DP  RH WIND       PRES   REMARKS
BRYCE CANYON   PTSUNNY   76  44  32 S13       30.33F
CEDAR CITY     PTSUNNY   77  47  34 VRB3      30.17F
MILFORD        SUNNY     84  45  25 N17G24    30.14F
MOAB/CYNLANDS  SUNNY     90  39  16 NE15      30.08F
PRICE          SUNNY     84  40  21 SE10      30.22F
ST GEORGE      CLEAR     88  46  23 NW5       29.99F
KANAB          PTSUNNY   82  48  30 CALM      30.13F

$$

REGIONAL REPORTS     COLORADO/ARIZONA

CITY           SKY/WX    TMP DP  RH WIND       PRES   REMARKS
CRAIG, CO      SUNNY     76  37  24 NW3       30.31F
GRAND JUNCTION SUNNY     84  45  25 SW5       30.14F
RIFLE          SUNNY     80  42  25 CALM      30.21F
MONTROSE       SUNNY     80  44  27 N8        30.22F
CORTEZ         SUNNY     84  46  26 SW12      30.19F
PAGE, AZ       SUNNY     89  47  23 NE6       30.08F
GRAND CANYON   MOSUNNY   79  50  36 E12       30.24F
KINGMAN        SUNNY     89  43  20 W6        30.02F
FLAGSTAFF        N/A    N/A N/A N/A MISG      30.27F

$$

REGIONAL REPORTS    NEVADA/IDAHO/WYOMING

CITY           SKY/WX    TMP DP  RH WIND       PRES   REMARKS
LAS VEGAS, NV  MOSUNNY   92  41  17 VRB5      29.90F
ELY            SUNNY     77  40  26 N13       30.24F
ELKO           SUNNY     80  41  24 E6        30.17F
POCATELLO, ID  SUNNY     73  46  38 VRB5      30.23F
BURLEY         SUNNY     74  48  39 N6        30.19F
EVANSTON, WY   SUNNY     72  32  23 CALM      30.36F
ROCK SPRINGS   SUNNY     71  34  25 VRB3      30.35F

$$


USA.gov is the U.S. government's official web portal to all federal, state and local government web resources and services.